Location: Brachbach
(49.1847°N, 9.7240°E)
Time: 14:31:05
(UTC+00:00)

Nimbus 7 Rocket - Pass Details

Date: 10 August 2024
Orbit: 921 x 965 km, 99.4° (Epoch: 14 September)

Event Time Altitude Azimuth Distance (km) Brightness Sun altitude
Rises 23:56:19 0° 18° (NNE) 3,598 8.8 -25.0°
Reaches altitude 10° 23:58:49 10° 22° (NNE) 2,645 7.8 -24.9°
Maximum altitude 00:04:39 60° 102° (ESE) 1,049 4.6 -24.8°
Enters shadow 00:05:48 51° 148° (SSE) 1,154 4.5 -24.8°
